File timestamp: Wed Aug 24 03:00:00 2016, Internal temp: 17.0135498046875
1472007601, 0.00329626142047346, -0.0197729915380478, 0.0165019426494837, 33633, 32501, 23212, 132.177978515625
1472007602, 0.00444274209439754, -0.0203093364834785, 0.0162549428641796, 33640, 32502, 23209, NaN
1472007603, 0.00533399172127247, -0.0201834049075842, 0.0165225770324469, 33636, 32492, 23207, NaN
1472007604, 0.00588929979130626, -0.0210486557334661, 0.0165800452232361, 33629, 32500, 23211, NaN
1472007605, 0.00646065268665552, -0.0211957283318043, 0.0162159260362387, 33638, 32501, 23202, NaN
1472007606, 0.0073148743249476, -0.0222963187843561, 0.0166363604366779, 33634, 32497, 23204, NaN
1472007607, 0.00788192357867956, -0.0232926495373249, 0.0171263627707958, 33632, 32505, 23205, NaN
1472007608.008, 0.0080341175198555, -0.0235468726605177, 0.0166276786476374, 33627, 32503, 23216, NaN
1472007609.008, 0.0080628264695406, -0.0238529499620199, 0.0169785972684622, 33643, 32497, 23202, NaN
1472007610.008, 0.00798060838133097, -0.023830184713006, 0.0166701748967171, 33617, 32505, 23214, NaN
1472007610.008, 0.00780036905780435, -0.0236142352223396, 0.0169563423842192, 33625, 32504, 23205, NaN
1472007611.016, 0.00753511022776365, -0.0235901400446892, 0.0174370091408491, 33633, 32511, 23204, NaN
1472007612.016, 0.00719770602881908, -0.0234532356262207, 0.0178179983049631, 33628, 32495, 23211, NaN
1472007613.016, 0.00680070742964745, -0.0232921279966831, 0.018354594707489, 33637, 32507, 23192, NaN
1472007614.016, 0.0063561825081706, -0.0232024341821671, 0.0183879863470793, 33630, 32502, 23201, NaN
1472007615.016, 0.00587557815015316, -0.0229987278580666, 0.0185257401317358, 33639, 32494, 23206, NaN
1472007616.016, 0.00536961387842894, -0.0232058018445969, 0.0180311258882284, 33620, 32511, 23219, NaN
1472007617.016, 0.00484819710254669, -0.0232129413634539, 0.018385287374258, 33640, 32508, 23208, NaN
1472007618.016, 0.00432036304846406, -0.0241756327450275, 0.0186976753175259, 33626, 32503, 23216, NaN
1472007619.016, 0.00379423727281392, -0.0239524878561497, 0.0186139512807131, 33634, 32504, 23206, NaN
1472007620.016, 0.00327701261267066, -0.0237705931067467, 0.0182386636734009, 33628, 32510, 23211, NaN
1472007621.016, 0.0027749496512115, -0.0232023727148771, 0.0175746940076351, 33632, 32500, 23212, NaN
1472007622.016, 0.00229338579811156, -0.0221963226795197, 0.0176492128521204, 33631, 32509, 23199, NaN
1472007623.016, 0.00183676171582192, -0.0217183232307434, 0.0170416012406349, 33652, 32502, 23201, NaN
1472007624.016, 0.00140865659341216, -0.0216143634170294, 0.0171606279909611, 33636, 32500, 23207, NaN
1472007625.016, 0.00101183285005391, -0.022110927850008, 0.0175475850701332, 33636, 32493, 23206, NaN
1472007626.016, 0.00064828823087737, -0.0223228875547647, 0.0182972326874733, 33624, 32499, 23209, NaN
1472007627.016, 0.000319313607178628, -0.0226944927126169, 0.0187396910041571, 33631, 32500, 23196, NaN
1472007628.016, 2.55549766734475e-05, -0.0232377145439386, 0.019102880731225, 33634, 32493, 23196, NaN
1472007629.016, -0.0002329224080313, -0.0233925450593233, 0.0196400247514248, 33638, 32502, 23198, NaN
1472007630.016, -0.000456568377558142, -0.0226377211511135, 0.0202353745698929, 33635, 32497, 23214, NaN
1472007631.016, -0.000646282511297613, -0.0227009132504463, 0.0204955041408539, 33627, 32499, 23208, NaN
1472007632.016, -0.000803349073976278, -0.0226854998618364, 0.0213698633015156, 33636, 32498, 23194, NaN
1472007633.016, -0.000929374131374061, -0.0226444825530052, 0.0212510582059622, 33646, 32499, 23197, NaN
1472007634.016, -0.00102622481063008, -0.0231610964983702, 0.0214654132723808, 33631, 32493, 23207, NaN
1472007635.016, -0.00109597167465836, -0.0233466885983944, 0.0216678995639086, 33638, 32504, 23204, NaN
1472007636.016, -0.00114083522930741, -0.0231492891907692, 0.0207807682454586, 33641, 32492, 23212, NaN
1472007637.026, -0.00116313656326383, -0.0237679462879896, 0.0203727744519711, 33635, 32496, 23209, NaN
1472007638.026, -0.00116525124758482, -0.0242016892880201, 0.0204081442207098, 33637, 32499, 23215, NaN
1472007638.026, -0.0011495683575049, -0.0246366653591394, 0.0199638623744249, 33627, 32502, 23209, NaN
1472007639.034, -0.00111845484934747, -0.0251474417746067, 0.0200490579009056, 33632, 32514, 23207, NaN
1472007640.034, -0.00107422273140401, -0.0248322300612926, 0.0195837859064341, 33634, 32498, 23208, NaN
1472007641.034, -0.00101910228841007, -0.0247808434069157, 0.0189522989094257, 33626, 32501, 23205, NaN
1472007642.034, -0.000955218391027302, -0.0240473225712776, 0.018625570461154, 33636, 32504, 23197, NaN
1472007642.034, -0.000884572102222592, -0.0249444730579853, 0.0185322798788548, 33625, 32510, 23200, NaN
1472007643.04, -0.00313565088436007, -0.0249127522110939, 0.0193009246140718, 33643, 32503, 23186, NaN
1472007644.04, -0.00907549262046814, -0.0249751340597868, 0.0189923346042633, 33635, 32507, 23213, NaN
1472007645.04, -0.0172519776970148, -0.0248413905501366, 0.019751351326704, 33630, 32490, 23203, NaN
1472007646.04, -0.0264654271304607, -0.0248340126127005, 0.0192883238196373, 33630, 32516, 23214, NaN
1472007646.04, -0.0361293852329254, -0.024470791220665, 0.019177658483386, 33641, 32506, 23207, NaN
1472007647.044, -0.044366367161274, -0.0242538265883923, 0.0184094533324242, 33627, 32500, 23217, NaN
1472007648.044, -0.0517292022705078, -0.0244013406336308, 0.018778869882226, 33644, 32502, 23208, NaN
1472007649.044, -0.0570359490811825, -0.0241898391395807, 0.0191342104226351, 33627, 32508, 23206, NaN
1472007650.044, -0.058949138969183, -0.0242246780544519, 0.019363597035408, 33626, 32507, 23209, NaN
1472007651.044, -0.057953767478466, -0.0236836336553097, 0.0184952337294817, 33637, 32497, 23204, NaN
1472007652.044, -0.0530564896762371, -0.0230033528059721, 0.018613625317812, 33647, 32501, 23209, NaN
1472007653.044, -0.0468246564269066, -0.0228569339960814, 0.0191286858171225, 33631, 32504, 23202, NaN
1472007654.044, -0.0382617227733135, -0.0225963946431875, 0.0195189081132412, 33637, 32502, 23213, NaN
1472007655.044, -0.0291784647852182, -0.0234365798532963, 0.0195351503789425, 33642, 32494, 23198, NaN
1472007656.044, -0.0200079530477524, -0.0233791042119265, 0.0195060856640339, 33622, 32503, 23213, NaN
1472007657.044, -0.00964941177517176, -0.0233035963028669, 0.0192302074283361, 33645, 32502, 23209, 132.452301025391
1472007658.044, 9.44690782489488e-06, -0.0236161127686501, 0.0189873147755861, 33638, 32500, 23209, NaN
1472007659.044, 0.00951673462986946, -0.023839458823204, 0.0192975085228682, 33640, 32483, 23201, NaN
1472007660.044, 0.0191172193735838, -0.0240891221910715, 0.0192017443478107, 33625, 32500, 23207, NaN
1472007661.044, 0.0287856217473745, -0.0237294640392065, 0.0185599569231272, 33626, 32499, 23208, NaN
1472007662.044, 0.0395176149904728, -0.0244396552443504, 0.0193624123930931, 33632, 32499, 23207, NaN
1472007663.054, 0.0492438301444054, -0.0251505840569735, 0.0195628311485052, 33621, 32485, 23204, NaN
1472007663.414, 0.0526745654642582, -0.0249490849673748, 0.0190772414207458, 33639, 32496, 23200, NaN
1472007664.414, 0.0607164762914181, -0.024780660867691, 0.0194554515182972, 33636, 32503, 23202, NaN
1472007664.414, 0.0671874657273293, -0.0248835403472185, 0.019175698980689, 33639, 32504, 23211, NaN
1472007665.422, 0.0727332755923271, -0.0239972695708275, 0.0181714687496424, 33630, 32503, 23201, NaN
1472007666.422, 0.0769384875893593, -0.023551331833005, 0.0183282271027565, 33639, 32495, 23197, NaN
1472007667.422, 0.078843928873539, -0.0238907374441624, 0.0169874615967274, 33625, 32502, 23203, NaN
1472007668.422, 0.0790266990661621, -0.024027468636632, 0.0165369343012571, 33628, 32497, 23217, NaN
1472007668.422, 0.0773660764098167, -0.0246133264154196, 0.0172325763851404, 33627, 32495, 23209, NaN
1472007669.428, 0.0743509829044342, -0.0241601951420307, 0.0167469754815102, 33637, 32503, 23200, NaN
1472007670.428, 0.0691032260656357, -0.0248867832124233, 0.0169362686574459, 33639, 32502, 23192, NaN
1472007671.428, 0.0624485835433006, -0.0246826913207769, 0.0161920320242643, 33620, 32498, 23194, NaN
1472007672.428, 0.0552565567195415, -0.0247121937572956, 0.016232505440712, 33627, 32501, 23212, NaN
1472007673.428, 0.0484501123428345, -0.024452667683363, 0.016814524307847, 33616, 32504, 23225, NaN
1472007674.428, 0.0412474386394024, -0.0251258462667465, 0.0164351817220449, 33627, 32495, 23213, NaN
1472007675.428, 0.0331946611404419, -0.0249468311667442, 0.0168723408132792, 33634, 32493, 23195, NaN
1472007676.428, 0.0242608934640884, -0.0262573640793562, 0.0173300839960575, 33631, 32497, 23210, NaN
1472007677.428, 0.0164704509079456, -0.0265557933598757, 0.0174595881253481, 33624, 32508, 23207, NaN
1472007678.428, 0.00886523071676493, -0.0265070348978043, 0.0174935963004827, 33628, 32507, 23201, NaN
1472007679.428, 0.00137983565218747, -0.0266003534197807, 0.0167704336345196, 33626, 32502, 23195, NaN
1472007680.428, -0.00519078690558672, -0.0259042158722878, 0.0172839798033237, 33638, 32502, 23204, NaN
1472007681.428, -0.0104890698567033, -0.0262985154986382, 0.0161300040781498, 33631, 32497, 23214, NaN
1472007682.428, -0.0154412565752864, -0.026196675375104, 0.0156805701553822, 33629, 32507, 23215, NaN
1472007683.428, -0.0203991793096066, -0.0256604366004467, 0.0154833300039172, 33641, 32499, 23204, NaN
1472007684.428, -0.0247535388916731, -0.0262687783688307, 0.0158838927745819, 33628, 32509, 23211, NaN
1472007685.428, -0.0298786032944918, -0.0266657266765833, 0.0153913190588355, 33629, 32516, 23207, NaN
1472007686.428, -0.0352320000529289, -0.0268320273607969, 0.0146216303110123, 33630, 32504, 23208, NaN
1472007687.428, -0.0394698716700077, -0.0271531827747822, 0.0144302509725094, 33638, 32506, 23211, NaN
1472007688.428, -0.0422293953597546, -0.0276665762066841, 0.0154733806848526, 33642, 32499, 23190, NaN
1472007689.428, -0.0436187274754047, -0.0276592280715704, 0.0156442187726498, 33634, 32502, 23208, NaN
1472007690.436, -0.0448360852897167, -0.0284639000892639, 0.0162920486181974, 33626, 32506, 23226, NaN
1472007691.436, -0.0451367795467377, -0.0286995340138674, 0.0168299395591021, 33643, 32504, 23192, NaN
1472007691.436, -0.043841116130352, -0.0279410909861326, 0.0164000038057566, 33642, 32509, 23203, NaN
1472007692.444, -0.0418870858848095, -0.0267206765711308, 0.0160295311361551, 33627, 32503, 23211, NaN
1472007693.444, -0.0401198640465736, -0.0263557527214289, 0.0148234600201249, 33640, 32500, 23204, NaN
1472007694.444, -0.0372915677726269, -0.0271999575197697, 0.0147151751443744, 33643, 32492, 23201, NaN
1472007695.444, -0.0340147726237774, -0.0276691634207964, 0.0147084351629019, 33621, 32519, 23208, NaN
1472007695.444, -0.030005045235157, -0.0275605078786612, 0.0138363083824515, 33621, 32513, 23210, NaN
1472007696.45, -0.0262507032603025, -0.027678482234478, 0.0130828339606524, 33629, 32504, 23209, NaN
1472007697.45, -0.0226558651775122, -0.028461629524827, 0.0126602780073881, 33634, 32508, 23194, NaN
1472007698.45, -0.0189761016517878, -0.028363823890686, 0.0120873367413878, 33626, 32497, 23207, NaN
1472007699.45, -0.016144834458828, -0.0281205885112286, 0.0124952783808112, 33632, 32502, 23207, NaN
1472007699.45, -0.0130928326398134, -0.0280637424439192, 0.0126287955790758, 33648, 32503, 23200, NaN
1472007700.456, -0.00993359927088022, -0.0276337247341871, 0.0130095640197396, 33639, 32498, 23197, NaN
1472007701.456, -0.00672667939215899, -0.0282069910317659, 0.0129047902300954, 33625, 32508, 23206, NaN
1472007702.456, -0.0038863520603627, -0.028080252930522, 0.0114341415464878, 33635, 32507, 23207, NaN
1472007703.456, -0.00157308718189597, -0.0282047241926193, 0.0111963478848338, 33627, 32505, 23199, NaN
1472007704.456, 0.000143415527418256, -0.0282250493764877, 0.012027588672936, 33627, 32509, 23198, NaN
1472007705.456, 0.00187220668885857, -0.0281137619167566, 0.0130720268934965, 33639, 32498, 23207, NaN
1472007706.456, 0.00356899690814316, -0.0280368383973837, 0.0130855152383447, 33630, 32503, 23209, NaN
1472007707.456, 0.00404940918087959, -0.0291926916688681, 0.0132935252040625, 33635, 32498, 23213, NaN
1472007708.456, 0.0041202581487596, -0.0294470954686403, 0.0135725550353527, 33622, 32506, 23213, NaN
1472007709.456, 0.00402777409180999, -0.0293971095234156, 0.0129977911710739, 33640, 32503, 23207, NaN
1472007710.456, 0.00504308147355914, -0.0294648297131062, 0.0129172867164016, 33625, 32502, 23211, NaN
1472007711.456, 0.00652094557881355, -0.0302922502160072, 0.0125612244009972, 33642, 32506, 23202, NaN
1472007712.456, 0.00818357989192009, -0.0296255778521299, 0.0117496894672513, 33632, 32507, 23210, 136.535705566406
1472007713.456, 0.0111256008967757, -0.0296936891973019, 0.0119907511398196, 33634, 32506, 23199, NaN
1472007714.456, 0.0145797124132514, -0.029075501486659, 0.0114766592159867, 33623, 32493, 23211, NaN
1472007715.456, 0.0171868428587914, -0.0283446777611971, 0.0116313938051462, 33634, 32493, 23216, NaN
1472007716.464, 0.0184238012880087, -0.0280821658670902, 0.0106890080496669, 33619, 32492, 23216, NaN
1472007717.464, 0.0180859547108412, -0.0276612751185894, 0.0110184652730823, 33642, 32502, 23201, NaN
1472007718.464, 0.0173458531498909, -0.028030127286911, 0.0107397129759192, 33633, 32501, 23211, NaN
1472007718.464, 0.0154606578871608, -0.0273825414478779, 0.0119381546974182, 33631, 32500, 23205, NaN
1472007719.472, 0.0147937275469303, -0.027130289003253, 0.0121839419007301, 33631, 32510, 23199, NaN
1472007720.472, 0.0136885261163116, -0.0270901452749968, 0.0122822094708681, 33630, 32499, 23205, NaN
1472007721.472, 0.0118390843272209, -0.0274260398000479, 0.0119097148999572, 33633, 32498, 23211, NaN
1472007722.472, 0.00995169300585985, -0.0266483165323734, 0.0125505309551954, 33638, 32495, 23196, NaN
1472007722.472, 0.00802165456116199, -0.0259436648339033, 0.0118452915921807, 33637, 32507, 23211, NaN
1472007723.478, 0.00661896960809827, -0.0267227478325367, 0.0117630138993263, 33634, 32494, 23207, NaN
1472007724.478, 0.0050834221765399, -0.0262507423758507, 0.0114951571449637, 33621, 32505, 23209, NaN
1472007725.478, 0.00403711060062051, -0.0259625408798456, 0.0111233843490481, 33634, 32496, 23202, NaN
1472007726.478, 0.00309132970869541, -0.0258951056748629, 0.0110821295529604, 33633, 32493, 23212, NaN
1472007726.478, 0.00140641536563635, -0.0249348152428865, 0.011721002869308, 33622, 32506, 23210, NaN
1472007727.482, -0.00107837514951825, -0.0245176330208778, 0.0119730923324823, 33646, 32497, 23211, NaN
1472007728.482, -0.00394107727333903, -0.0235817618668079, 0.0120025789365172, 33640, 32497, 23206, NaN
1472007729.482, -0.0058472459204495, -0.0232670363038778, 0.0115885389968753, 33637, 32505, 23203, NaN
1472007730.482, -0.00684336153790355, -0.0230463724583387, 0.0122025432065129, 33637, 32493, 23183, NaN
1472007731.482, -0.00758401118218899, -0.0228465590626001, 0.012192084454, 33638, 32497, 23193, NaN
1472007732.482, -0.00732058426365256, -0.0231084246188402, 0.0125683331862092, 33639, 32506, 23189, NaN
1472007733.482, -0.00744626903906465, -0.023369062691927, 0.0125660421326756, 33631, 32508, 23201, NaN
1472007734.482, -0.00723719038069248, -0.022307263687253, 0.0130144702270627, 33627, 32496, 23209, NaN
1472007735.482, -0.00686546135693789, -0.0231558158993721, 0.0130776325240731, 33633, 32498, 23197, NaN
1472007736.482, -0.00570898409932852, -0.0232528634369373, 0.0137861920520663, 33624, 32498, 23210, NaN
1472007737.482, -0.00467870151624084, -0.0233737081289291, 0.0140798361971974, 33631, 32503, 23195, NaN
1472007738.482, -0.00409824680536985, -0.0236513968557119, 0.0134485568851233, 33632, 32493, 23201, NaN
1472007739.482, -0.00402003526687622, -0.0235274434089661, 0.0136312451213598, 33637, 32492, 23196, NaN
1472007740.482, -0.00357515877112746, -0.0236000698059797, 0.0141803901642561, 33622, 32494, 23218, NaN
1472007741.482, -0.00242795050144196, -0.0231997091323137, 0.0149728879332542, 33637, 32508, 23191, NaN
1472007742.482, -0.00134891958441585, -0.0234334599226713, 0.01448386721313, 33636, 32507, 23196, NaN
1472007743.492, -2.69359770754818e-05, -0.0239571649581194, 0.0148601345717907, 33634, 32501, 23200, NaN
1472007744.492, 0.00177802273537964, -0.0236052814871073, 0.0151453213766217, 33637, 32494, 23195, NaN
1472007744.492, 0.00429130112752318, -0.0228557158261538, 0.0152613390237093, 33640, 32504, 23199, NaN
1472007745.5, 0.00619464972987771, -0.0225590728223324, 0.0156058426946402, 33633, 32492, 23205, NaN
1472007746.5, 0.00700010452419519, -0.0229152143001556, 0.0155204124748707, 33637, 32514, 23210, NaN
1472007747.5, 0.00667355908080935, -0.024012153968215, 0.0151774007827044, 33621, 32507, 23231, NaN
1472007748.5, 0.00563719542697072, -0.0242110844701529, 0.014833552762866, 33634, 32499, 23214, NaN
1472007748.5, 0.00423474470153451, -0.0242074523121119, 0.0143283810466528, 33640, 32501, 23215, NaN
1472007749.506, 0.00248325453139842, -0.0243768878281116, 0.014764865860343, 33639, 32493, 23203, NaN
1472007750.506, -0.000965824350714684, -0.0249764416366816, 0.0156516991555691, 33638, 32505, 23195, NaN
1472007751.506, -0.00417656358331442, -0.0260322690010071, 0.015678970143199, 33624, 32511, 23220, NaN
1472007752.506, -0.00795098673552275, -0.0264297034591436, 0.0152674978598952, 33638, 32504, 23203, NaN
1472007753.506, -0.0103308502584696, -0.0267682336270809, 0.0155842322856188, 33628, 32491, 23210, NaN
1472007754.506, -0.0122232744470239, -0.0268832184374332, 0.0162528064101934, 33624, 32496, 23224, NaN
1472007755.506, -0.013927286490798, -0.0264716558158398, 0.0163272023200989, 33639, 32495, 23195, NaN
1472007756.506, -0.0153470821678638, -0.0262270048260689, 0.0158726759254932, 33638, 32499, 23206, NaN
1472007757.506, -0.0154539998620749, -0.026628639549017, 0.0156780853867531, 33624, 32500, 23213, NaN
1472007758.506, -0.0139839351177216, -0.0273554120212793, 0.0164388492703438, 33636, 32510, 23204, NaN
1472007759.506, -0.0119908517226577, -0.0276531297713518, 0.015168028883636, 33632, 32500, 23206, NaN
1472007760.506, -0.00939850322902203, -0.0270418524742126, 0.015465160831809, 33631, 32506, 23211, NaN
1472007761.506, -0.00617619743570685, -0.0265534482896328, 0.0157054513692856, 33640, 32503, 23192, NaN
1472007762.506, -0.00260688341222703, -0.0261983647942543, 0.0156363118439913, 33636, 32497, 23195, NaN
1472007763.506, 0.00133910542353988, -0.0268043000251055, 0.0160820260643959, 33631, 32495, 23206, NaN
1472007764.506, 0.00486346008256078, -0.0269927456974983, 0.0150516368448734, 33633, 32501, 23205, NaN
1472007765.506, 0.00665132189169526, -0.0275542344897985, 0.0144619820639491, 33634, 32498, 23199, NaN
1472007766.506, 0.00790510699152946, -0.027632724493742, 0.0150446081534028, 33633, 32493, 23204, NaN
1472007767.506, 0.00844438374042511, -0.0272868238389492, 0.0144850416108966, 33637, 32494, 23207, 135.429962158203
1472007768.506, 0.00816253200173378, -0.0273790210485458, 0.0141660235822201, 33642, 32489, 23207, NaN
1472007769.506, 0.008191361092031, -0.0270687062293291, 0.012847812846303, 33639, 32502, 23203, NaN
1472007770.514, 0.00694015296176076, -0.0272293221205473, 0.0119448779150844, 33634, 32503, 23201, NaN
1472007771.514, 0.00579331535845995, -0.0277452170848846, 0.0120630599558353, 33635, 32493, 23210, NaN
1472007772.514, 0.0037194259930402, -0.027629928663373, 0.0118882227689028, 33628, 32502, 23196, NaN
1472007772.514, 0.00179727107752115, -0.0268302168697119, 0.0112779047340155, 33635, 32482, 23201, NaN
1472007773.522, 0.00163859373424202, -0.0275093913078308, 0.0113971903920174, 33628, 32497, 23201, NaN
1472007774.522, 0.00158021040260792, -0.0282370522618294, 0.0111772976815701, 33626, 32492, 23208, NaN
1472007775.522, 0.00115347479004413, -0.0283558517694473, 0.0114241344854236, 33628, 32498, 23203, NaN
1472007776.522, 0.000918589415960014, -0.0279117487370968, 0.0110047040507197, 33631, 32501, 23212, NaN
1472007776.522, 0.000495989923365414, -0.0278140529990196, 0.0111606456339359, 33618, 32505, 23210, NaN
1472007777.528, 0.000363664439646527, -0.0275230742990971, 0.0120262233540416, 33634, 32511, 23207, NaN
1472007778.528, 0.00141172728035599, -0.0276642646640539, 0.0119884395971894, 33635, 32493, 23207, NaN
1472007779.528, 0.00201563793234527, -0.0277786981314421, 0.0121527798473835, 33628, 32501, 23202, NaN
1472007780.528, 0.00230883317999542, -0.0267720725387335, 0.0123530123382807, 33624, 32491, 23201, NaN
1472007780.528, 0.00198482139967382, -0.0266184713691473, 0.0118580535054207, 33623, 32494, 23227, NaN
1472007781.532, 0.000880172243341804, -0.0259916298091412, 0.0127187352627516, 33642, 32498, 23208, NaN
1472007782.532, -0.000837162137031555, -0.0253983270376921, 0.0124729089438915, 33631, 32508, 23206, NaN
1472007783.532, -0.00165650446433574, -0.025019446387887, 0.0131054995581508, 33636, 32499, 23208, NaN
1472007784.532, -0.00256279879249632, -0.0247817561030388, 0.0139020159840584, 33635, 32509, 23216, NaN
1472007784.532, -0.00269086519256234, -0.0245742648839951, 0.0133389616385102, 33624, 32507, 23200, NaN
1472007785.536, -0.00214786687865853, -0.0244890470057726, 0.0135583644732833, 33631, 32502, 23201, NaN
1472007786.536, -0.000968924490734935, -0.0242586992681026, 0.0137857915833592, 33639, 32508, 23207, NaN
1472007787.536, -0.000474550586659461, -0.0235695764422417, 0.0146166132763028, 33629, 32497, 23213, NaN
1472007788.536, -0.000350321875885129, -0.0228127483278513, 0.0137456804513931, 33635, 32496, 23198, NaN
1472007789.536, -0.000217404798604548, -0.0226919334381819, 0.0138742225244641, 33637, 32503, 23203, NaN
1472007790.536, 0.000742937671020627, -0.0231128800660372, 0.0141320414841175, 33632, 32497, 23213, NaN
1472007791.536, 0.00215643085539341, -0.0236165318638086, 0.0147451963275671, 33636, 32518, 23200, NaN
1472007792.536, 0.0038683838211, -0.0232556480914354, 0.0145037304610014, 33633, 32492, 23194, NaN
1472007793.536, 0.00595251517370343, -0.0234614629298449, 0.0152834448963404, 33624, 32507, 23196, NaN
1472007794.536, 0.00791872385889292, -0.0229699984192848, 0.0151118282228708, 33634, 32508, 23213, NaN
1472007795.544, 0.00930889323353767, -0.0222766194492579, 0.0161778330802917, 33637, 32494, 23209, NaN
1472007796.544, 0.010311434045434, -0.0213901437819004, 0.0169307477772236, 33641, 32502, 23198, NaN
1472007797.544, 0.0111399013549089, -0.0221151504665613, 0.0174161083996296, 33625, 32488, 23215, NaN
1472007797.544, 0.0111783696338534, -0.0221347566694021, 0.0180535800755024, 33628, 32507, 23207, NaN
1472007798.552, 0.0111711928620934, -0.0212057698518038, 0.0179084483534098, 33630, 32493, 23199, NaN
1472007799.552, 0.0103886872529984, -0.0212441701442003, 0.0182050205767155, 33645, 32493, 23199, NaN
1472007800.552, 0.00908833090215921, -0.0212889164686203, 0.0181975923478603, 33630, 32508, 23215, NaN
1472007801.552, 0.00770055456086993, -0.0218333918601274, 0.0183002166450024, 33629, 32499, 23210, NaN
1472007802.552, 0.00596807198598981, -0.0212366133928299, 0.0186170488595963, 33633, 32508, 23205, NaN
1472007803.552, 0.00434507010504603, -0.0207455065101385, 0.0189799014478922, 33645, 32504, 23204, NaN
1472007804.552, 0.0022254940122366, -0.0207385756075382, 0.0193913076072931, 33626, 32504, 23215, NaN
1472007805.552, 7.68907484598458e-05, -0.0208620391786098, 0.0193512588739395, 33630, 32501, 23207, NaN
1472007806.552, -0.00183369021397084, -0.0214582234621048, 0.0185940582305193, 33633, 32503, 23211, NaN
1472007807.552, -0.00364116136915982, -0.0219588726758957, 0.0187399387359619, 33617, 32498, 23219, NaN
1472007808.552, -0.0051226313225925, -0.0217222981154919, 0.0183659233152866, 33635, 32491, 23205, NaN
1472007809.552, -0.00683926092460752, -0.0217645931988955, 0.0187592320144176, 33625, 32504, 23214, NaN
1472007810.552, -0.00808000657707453, -0.0212193168699741, 0.0195119511336088, 33633, 32512, 23201, NaN
1472007811.552, -0.0092336842790246, -0.0217376966029406, 0.0206814669072628, 33635, 32497, 23208, NaN
1472007812.552, -0.0100481193512678, -0.0219301301985979, 0.0204659476876259, 33629, 32498, 23200, NaN